Погода Октябрьское

Погода Октябрьское : погода сейчас, прогноз погоды и архив. Всё, что Вы хотите узнать о погоде Октябрьское!

Поиск расширенной информации на нашем сайте:

Другие новости

Новости СМИ2

Главная страница сайта

Новости сайта

02.10.2013

Напоминаем, что на нашем новом сайте вы можете получить высокодетализированные прогнозы погоды по пунктам России, СНГ и мира (включающие важные для авиации метеовеличины, такие как направление и скорость ветра, видимость, явления погоды, количество и форма облачности, нижняя и верхняя граница облачности), а также ознакомиться с разнообразными материалами по авиационной метеорологии и подборкой полезных ссылок на эту тему.

Сайт Метеоцентр.Азия посвящён разработке технологий оптимизации авиаметеорологического обслуживания, включая проектирование и перспективное создание нескольких автоматизированных авиаметеорологических систем:
- система выпуска высокодетальных прогностических карт явлений погоды для нижнего воздушного пространства по России и ближнему зарубежью;
- система верификации прогнозов TAF (выпускаемых синоптиками официальных АМСГ РФ и ближнего зарубежья) и AUTOTAF (выпускаемых сайтом Метеоцентр.Азия) - выявление ошибок, онлайн-сопоставление с фактической погодой METAR, автоматическое внесение коррективов в прогнозы при резком отклонении фактической погоды от прогноза, подсчёт оправдываемости прогнозов по элементам и в целом;
- система обработки, анализа и отображения авиаметеорологической информации для применения провайдерами метеорологической информации.


Погода Октябрьское - сегодня

Время (UTC), дата Ветер
(°,м/с) 
Видим.   Явления Облачность Т
(°С)
Тd
(°С)
f(%) Тe
(°С)
Pmin
(гПа)
dP
(гПа)
Po
(мм)
O2
(г/м3)
Тmin Tmax R s Состояние
почвы
00 27.05.17 160 (Ю) 20000 м  {гроза, ливн. осадки}  10/8 600 м верхняя 
[Sc|Ci fib]
+6.3 +6.1 99 +7  1003.1  0.8  746  293           
03 27.05.17 200 (Ю) 20000 м    9/9 600 м 
[Sc]
+9.9 +7.8 87 +11  1003.7  0.7  746  289  +5.8      влажная 
06 27.05.17 250 (З) 20000 м    10/8 600 м верхняя 
[Cu Sc|Ci fib]
+13.8 +8.9 72 +14  1003.9  0.3  746  285           
09 27.05.17 210 (ЮЗ) 20000 м    10/4 1000 м верхняя 
[Cu hum|Ci fib]
+18 +7.1 49 +19  1002.8  -1  746  281           
12 27.05.17 130 (ЮВ) 20000 м    10/4 1000 м верхняя 
[Cu hum|Ci fib]
+20.3 +6.1 40 +20  1000.4  -2.3  744  278           
15 27.05.17 030 (СВ) 1{16}  20000 м  гроза без осадков{ливн. осадки}  10/8 600 м кучево-дожд., верхняя 
[Cb cap|Ci fib]
+14.1 +12.8 92 +20  998.8  -1.7  743  282    +20.4     
18 27.05.17 110 (В) 20000 м  {гроза, ливн. осадки}  10/8 600 м верхняя 
[Sc diur, vesp|Ci fib]
+12.7 +12 96 +18  998.5  -0.4  742  284           
21 27.05.17 160 (Ю) 20000 м    10/3 1000 м средняя 
[Sc|As op]
+12.5 +11.8 95 +18  997.2  -1.3  741  283           
00 28.05.17 160 (Ю) 4000 м  слаб. дождь  10/0 средняя 
[As op]
+11.7 +11.5 99 +16  996.5  -1.3  741  284           
03 28.05.17 290 (З) 4000 м  слаб. дождь{туман}  10/10 100 м 
[Ns]
+8.8 +8.6 99 +9  995.2  -1.4  740  287  +8.6       
09 28.05.17 330 (СЗ) 4000 м  слаб. дождь  10/10 600 м 
[Ns]
+3.7 +2.4 91 +3  996.8  1.5  741  294           
12 28.05.17 280 (З) 4000 м  слаб. дождь  10/10 600 м 
[Ns]
+1.9 +0.8 92 998.8  1.9  742  297           
15 28.05.17 280 (З) 1000 м  снег  10/10 300 м 
[Ns]
+0.2 -0.4 96 -2  1000.6  1.8  744  299    +9     
21 28.05.17 280 (З) 3{12}  20000 м    10/0 средняя 
[As op]
-1.2 -2.5 91 -3  1003.2  746  302           
00 29.05.17 340 (С) 20000 м    10/10 1000 м 
[Sc]
-1.2 -2.5 91 -2  1004  0.8  746  302           
03 29.05.17 280 (З) 4000 м  слаб. снег  10/8 600 м средняя 
[Cu hum|As op]
-0.4 -2.8 84 -3  1005  747  302  -1.6    равномерный
мокрый или
старый снег
100% 
06 29.05.17 290 (З) 20000 м  в посл. час снег  10/9 600 м средняя 
[Cu hum|As op]
+0.6 -1.3 87 +1  1006.3  1.4  748  301           
09 29.05.17 320 (СЗ) 20000 м    9/9 600 м кучево-дожд. 
[Cb cap]
+3.3 -1.8 69 +3  1007.1  0.9  749  298           
12 29.05.17 330 (СЗ) 20000 м  {ливн. осадки}  9/9 600 м 
[Sc]
+3.9 -4.9 53 +3  1007.9  0.8  749  298           
15 29.05.17 тихо ()   20000 м  в посл. час ливневой снег  9/9 600 м кучево-дожд. 
[Cb cap]
+4.1 -3.1 59 +4  1007.5  -0.4  749  298    +4.4  0.3     
18 29.05.17 020 (С) 20000 м  {ливн. осадки}  10/8 1000 м верхняя 
[Sc|Ci fib]
+0.5 -1.2 88 +1  1008  0.3  749  301           
21 29.05.17 тихо ()   20000 м    10/10 1000 м 
[Sc]
-0.5 -2 90 -1  1008.2  0.2  749  303           
00 30.05.17 100 (В) 20000 м  в посл. час крупа  8/8 600 м кучево-дожд. 
[Cb cap]
-0.1 -1.6 90 +1  1008.2  0.1  749  302           
03 30.05.17 160 (Ю) 20000 м    3/3 1000 м 
[Sc]
+3.7 -2.6 63 +3  1008.3  0.2  750  298  -0.9    0.0    влажная 
06 30.05.17 270 (З) 20000 м    9/9 600 м 
[Sc]
+6.2 -8.6 34 +5  1007.6  -0.6  749  296           
Время (UTC), дата Ветер
(°,м/с) 
Видим.   Явления Облачность Т
(°С)
Тd
(°С)
f(%) Тe
(°С)
Pmin
(гПа)
dP
(гПа)
Po
(мм)
O2
(г/м3)
Тmin Tmax R s Состояние
почвы

Для получения пояснительной информации подведите курсор к названию столбца.

ПОГОДА Октябрьское - архив

Всё, что Вы хотите узнать о погоде Октябрьское - удобно и подробно!

Выберите нужную дату (начиная с 1 января 2015* года) и нажмите кнопку "Найти".
Будут отображены архивные сводки погоды по пункту Октябрьское, начиная с указанной даты.


Отображать данные в формате CSV (для использования в таблицах Excel)


Внимание! Наш архив погоды предназначен исключительно для личного некоммерческого использования в познавательных целях. Если Вам необходимы официальные справки о состоянии погоды (для производственных, юридических, коммерческих и т.п. целей), обращайтесь в органы Росгидромета.

*Примечание: данная дата относится к архиву по метеостанциям СССР (Россия, СНГ, Балтия).
Архив по метеостанциям Зарубежной Европы и Азии (кроме Китая) хранится 10 дней, по другим регионам земного шара (Китай, Африка, Америка, Австралия, Океания) - 1 день.

Октябрьское - район местоположения метеостанции


Название, широта, долгота, высота метеостанции:
Октябрьское 62.4°ш. 66.1°д. 72 м над ур. моря [Российская Федерация]

Дополнительная информация

В oтличие oт бoльшинства пoгoдных сайтoв мы публикуем пoдрoбную метеoинфoрмацию в детальнoм прoфессиoнальнoм фoрмате.

Характеристики температуры и влажнoсти вoздуха измеряются на высoте 2 м в тени вдали oт зданий и деревьев.
Скoрoсть ветра измеряется на высoте 10 м (на урoвне рoста челoвека скoрoсть ветра ниже в 1.5-2 раза). Если метеoстанция нахoдится в гoрoде или в лесу, тo скoрoсть ветра занижена на 2-4 м/с пo сравнению с oткрытым местoм. Скoрoсть ветра над акватoриями крупных рек и oзёр, а также на вершинах хoлмoв на 2-5 м/с выше, чем в oбычных услoвиях.
Атмoсфернoе давление в разных тoчках местнoсти мoжет значительнo oтличаться oт давления на метеoстанции, в зависимoсти oт услoвий рельефа (при пoдъёме на 10 м давление пoнижается примернo на 1 мм рт.ст.).